"Pseudo-MPEC" for C9G4XQ2

Created 2023 Sep 27 1:22:04 UT using Find_Orb

Click here for an explanation of pseudo-MPECs

 
 Astrometry: 
     C9G4XQ2 KC2023 06 23TZMs)_8(oFsI4kVmI\obBT`a?Ldv'EINblW1l*5cssf`w0_xdU^KF52
     C9G4XQ2 KC2023 06 29u15ql4tFc6mt9X7Q=v=Xssh2r,B0W=uFhAAstrometry[hx,5r.NF51
     C9G4XQ2* C2023 08 21PEQ\='SuTM=fyI.cZ%_GZ;=HmJ]?2fp2=,)D_XR2ueD'O$`h^.H%F51
     C9G4XQ2  C2023 08 21KG)bgN7(EC1C(iuod:4.u=f[+Ji.$I3LRO9H$*P#MaG/*BXn6mV1F51
     C9G4XQ2  C2023 08 210Bmpm6$K_kwl@j:DtkH!Ro17kC+(69G^`q+wuW6f.(`SC+M4-)@VF51
     C9G4XQ2  C2023 08 21nWG7=)NYwOq]FW4uhK;v-!OP`WG:9W.J%EAbsT_C]WQ%\l!jH+tbF51
     C9G4XQ2  C2023 08 23m0V,gd0FcR/7,H92kpI#GN_n*)i$$_q4;WVYgBse34MlYCp\DDv8F52
     C9G4XQ2  C2023 08 23(YTq73V.!K?W^a4'Zy::gA-GW]cU3U^m0U*wfmx7fVvMDW.CKHeGF52
     C9G4XQ2  C2023 08 23/f?@I\v78redacted;Z^H5ByU5wGV-C)QTkuY::Z#D)\@@t$viGuF52
     C9G4XQ2  C2023 09 06y6sFlclickivXwA-0[!k9'k]0'W+1/RT0NSG!ym[BCm?eT*Uu9\@F51
     C9G4XQ2  C2023 09 06PGGaRIr;VML^M_@tHBB)vL]R!whA'5BiAF;]h/`I\yOVsQN;M1lSF51
     C9G4XQ2  C2023 09 06oxTFfOMVrpw2Z@TCZ#YY,j,8ePn?ElMEXWLhOC@G/gcxGAWZMGfeF51
     C9G4XQ2 1C2023 09 07.37682523 59 22.841-15 32 07.01   ~9BFb 20.93GVNEOCPG96
     C9G4XQ2 1C2023 09 07.38196023 59 22.924-15 32 17.95   ~9BFb 20.46GVNEOCPG96
     C9G4XQ2 1C2023 09 07.38708523 59 22.967-15 32 28.68   ~9BFb 21.08GVNEOCPG96
     C9G4XQ2 1C2023 09 07.39223023 59 23.078-15 32 39.80   ~9BFb 20.29GVNEOCPG96
     C9G4XQ2  C2023 09 07fh+p6$o(Q:;.f)7/I^r$%\W3`*['J!o/q,3fhd)MlgdVj#NH(d$/F52
     C9G4XQ2  C2023 09 07u8oZsv*NFmE,eNDk2q7y6GCmPlunp*j.TJ[*./*!.j's?%dQQV*AF52
     C9G4XQ2  C2023 09 07#M4-?/jnlRp4,$w7Y,':%?DQpT[71cK?\5AL]gY_7mkoD\NPh0aTF52
     C9G4XQ2  C2023 09 08JX._I?HO8+d31GTj,k7Q`\442,VBJPtP84y2\(JAl^SmlwS^5_DqF51
     C9G4XQ2  C2023 09 08M3]YiZ)a0XkIlE5(M_JtwWgjTuNCZL:-_Rf)2IDv[6E'[Z0.t4(KF51
     C9G4XQ2  C2023 09 08EJ;SyCwYJk@/C`lU/k,E[QLf6$:$aeIe[#dXw(kqliW^x@)*ed68F51
     C9G4XQ2  C2023 09 08V(_p-5V?p3)O3ZWYQIH.bFNk+nVA`6whOGu)\,H-?+6-?G@pKhX3F51
     C9G4XQ2 1C2023 09 14haXsUhn;Yk].83lO?:\8ry???6j-HWhereP/6#XLY7=q0*l_#,A;Q62
     C9G4XQ2 1C2023 09 14,m;L24WBd4Lt$)8]ULtMCN]'@v*Mqy3dn9v)U-%tB+H4:]Df2qc`Q62
     C9G4XQ2  C2023 09 15TD'*(.!(ueP5;3DI8rEC@E2[)V!oM?U[=6eFxf(NQX=FF;o^4:\.F51
     C9G4XQ2  C2023 09 15`HiC$E8+G@58+[6KcVv[vwL41fJ?rcIPb;5ZcUo!:+keH0AxExtBF51
     C9G4XQ2  C2023 09 15J/-6Y'=RD@\,\r@yM5htE-C/OAUMQwK9g^@^jd%MJ;Ej:LYnnTmQF51
     C9G4XQ2  C2023 09 15#+r2X4=/9Vvxv5h::odUn.IAB=5P0k'gvSSThK=['n3X)VrCK7R@F51
     C9G4XQ2 KC2023 09 18yU;uL*K\v,$r`1'(\x=lQvu-Hr29$,mY!h+,:B\.`1iforBHh`fZE94
     C9G4XQ2 KC2023 09 1870x(dXaqKtL9X-:.IHg8k5ZQU;Bq%@6a^HH/MC\@#:N%/6[2^$)8E94
     C9G4XQ2 KC2023 09 19_ZGT?Yv/@51CD^fXiu,H^v]p5_tQ3yygUr,[AAFd?**Mu#u3y2)4E94
     C9G4XQ2 KC2023 09 19qWS#k,2;N3G/TBUr9/)k2$$2j-a-d/m@B/HU01c-@5IYkeCtVUR4E94
     C9G4XQ2 KC2023 09 19ABAB]9)#wBE,kTpVq#w,L0wkSq!/I5PE0L(JV*MS'L_LZ/(+3%79E94
     C9G4XQ2 KC2023 09 196h+i9,Rexplanationv)a,UC01N]/cW[CgcNC?m3ax_/58WAG!R3E94

Station data:
(E94) Gisborne (Possum Observatory)  (S38.629920 E177.883310)  New Zealand.
   Observer J. Drummond. 0.41-m f/4.5 Newtonian reflector + CCD.
(F51) Pan-STARRS 1, Haleakala  (N20.707234 W156.255910)  US/Hawaii.
   Observers J. Bulger, T. Lowe, A. Schultz, M. Willman. Measurers K.
   Chambers, S. Chastel, T. de Boer, L. Denneau, J. Fairlamb, H. Flewelling,
   M. Huber, C.-C. Lin, E. Magnier, Y. Ramanjooloo, R. Wainscoat, R. Weryk.
   1.8-m Ritchey-Chrétien + CCD.
(F52) Pan-STARRS 2, Haleakala  (N20.707382 W156.255910)  US/Hawaii.
   Observers J. Bulger, T. Dukes, T. Lowe, A. Schultz, M. Willman. Measurers
   K. Chambers, S. Chastel, T. de Boer, L. Denneau, J. Fairlamb, H.
   Flewelling, M. Huber, C.-C. Lin, E. Magnier, Y. Ramanjooloo, R. Wainscoat,
   R. Weryk. 1.8-m Ritchey-Chrétien + CCD.
(G96) Mt. Lemmon Survey  (N32.442751 W110.788720)  US/Arizona.  Observer E.
   J. Christensen. 1.5-m reflector + 10K CCD.
(Q62) iTelescope Observatory, Siding Spring  (S31.273286 E149.064420)
   Australia/NSW.  Observer H. Sato. 0.51-m f/6.8 astrograph + CCD + f/4.5
   focal reducer0.43-m f/6.8 astrograph + CCD + focal reducer0.43-m f/6.8
   astrograph + CCD0.10-m f/5 astrograph + CCD0.127-m f/5.6 refractor +
   CCD0.50-m f/6.8 reflector + CCD0.30-m f/9 reflector + CCD.

Orbital elements:  C9G4XQ2
   Perihelion 2023 Sep 24.15241 +/- 0.000826 TT =  3:39:28 (JD 2460211.65241)
Epoch 2023 Sep 19.0 TT = JDT 2460206.5                           AutoNEOCP
M 359.94724349 +/- 0.000013         (J2000 ecliptic)
n   0.01023919 +/- 2.57e-6          Peri.  199.98132 +/- 0.00038
a  21.0035226 +/- 0.00351           Node   159.20702 +/- 0.000058
e   0.9039859 +/- 1.57e-5           Incl.   37.04805 +/- 0.00021
P  96.26                   H 18.57  G  0.15   U  4.1
q 2.01663372 +/- 7.2e-6    Q 39.9904114 +/- 0.00702
34 of 35 observations 2023 June 23-Sept. 19; mean residual 0".19
Residuals in arcseconds: 
230623 F52  .03-  .13+    230907 G96  .36-  .11-    230914 Q62  .16+  .05-    
230629 F51  .05+  .16-    230907 G96  .13-  .11-    230915 F51  .05+  .04-    
230821 F51  .03-  .07-    230907 G96  .47-  .08+    230915 F51  .04+  .06+    
230821 F51  .14+  .03-    230907 G96  .16+  .08-    230915 F51  .01+  .03+    
230821 F51  .05+  .07+    230907 F52  .03+  .07+    230915 F51  .11+  .05-    
230821 F51  .04-  .12-    230907 F52  .03-  .02+    230918 E94  .21+  .43+    
230823 F52  .12-  .31+    230907 F52  .06+  .03+    230918 E94  .11+  .14+    
230823 F52  .11+  .01-    230908 F51  .02-  .01-    230919 E94( 2.3-  .92+)   
230823 F52  .07-  .08+    230908 F51  .01-  .06-    230919 E94  .81-  .82+    
230906 F51  .01+  .01-    230908 F51  .01-  .09-    230919 E94  .08+  .17-    
230906 F51  .08+  .30-    230908 F51  .02+  .03-    230919 E94  .09-  .01+    
230906 F51  .24-  .01-    230914 Q62  .06+  .04-    

Ephemerides (geocentric):
Date (UTC) HH   RA             Dec           delta  r     elong  mag " sig PA
---- --------  ------------   ------------  ------ ------ -----  --- --------
2023 09 27 01  00 03 05.739   -26 19 03.87  1.0749 2.0169 152.3 21.0 .093 105
2023 09 27 02  00 03 06.142   -26 20 14.56  1.0751 2.0169 152.2 21.0 .093 105
2023 09 27 03  00 03 06.546   -26 21 25.18  1.0753 2.0169 152.2 21.0 .093 105
2023 09 27 04  00 03 06.950   -26 22 35.74  1.0755 2.0169 152.1 21.0 .093 105
2023 09 27 05  00 03 07.354   -26 23 46.23  1.0757 2.0169 152.1 21.0 .093 105
2023 09 27 06  00 03 07.759   -26 24 56.66  1.0758 2.0169 152.1 21.0 .094 105
2023 09 27 07  00 03 08.164   -26 26 07.02  1.0760 2.0170 152.0 21.0 .094 105
2023 09 27 08  00 03 08.569   -26 27 17.31  1.0762 2.0170 152.0 21.0 .094 106
2023 09 27 09  00 03 08.975   -26 28 27.54  1.0764 2.0170 152.0 21.0 .094 106
2023 09 27 10  00 03 09.381   -26 29 37.71  1.0766 2.0170 151.9 21.0 .095 106
2023 09 27 11  00 03 09.787   -26 30 47.81  1.0768 2.0170 151.9 21.0 .095 106
2023 09 27 12  00 03 10.193   -26 31 57.84  1.0770 2.0170 151.8 21.0 .095 106
2023 09 27 13  00 03 10.600   -26 33 07.80  1.0772 2.0170 151.8 21.0 .095 106
2023 09 27 14  00 03 11.007   -26 34 17.70  1.0774 2.0170 151.8 21.0 .095 106
2023 09 27 15  00 03 11.414   -26 35 27.54  1.0776 2.0170 151.7 21.0 .096 106
2023 09 27 16  00 03 11.822   -26 36 37.31  1.0778 2.0170 151.7 21.0 .096 106
2023 09 27 17  00 03 12.230   -26 37 47.01  1.0780 2.0170 151.6 21.0 .096 106
2023 09 27 18  00 03 12.638   -26 38 56.65  1.0782 2.0171 151.6 21.0 .096 106
2023 09 27 19  00 03 13.047   -26 40 06.22  1.0784 2.0171 151.6 21.0 .096 106
2023 09 27 20  00 03 13.456   -26 41 15.72  1.0786 2.0171 151.5 21.0 .097 106
2023 09 27 21  00 03 13.865   -26 42 25.16  1.0788 2.0171 151.5 21.0 .097 106
2023 09 27 22  00 03 14.275   -26 43 34.53  1.0790 2.0171 151.4 21.0 .097 106
2023 09 27 23  00 03 14.685   -26 44 43.83  1.0792 2.0171 151.4 21.1 .097 106
2023 09 28 00  00 03 15.095   -26 45 53.07  1.0794 2.0171 151.4 21.1 .097 106
2023 09 28 01  00 03 15.505   -26 47 02.24  1.0796 2.0171 151.3 21.1 .098 107
2023 09 28 02  00 03 15.916   -26 48 11.35  1.0798 2.0171 151.3 21.1 .098 107
2023 09 28 03  00 03 16.328   -26 49 20.38  1.0800 2.0172 151.3 21.1 .098 107
2023 09 28 04  00 03 16.740   -26 50 29.35  1.0802 2.0172 151.2 21.1 .098 107
2023 09 28 05  00 03 17.152   -26 51 38.26  1.0804 2.0172 151.2 21.1 .099 107
2023 09 28 06  00 03 17.564   -26 52 47.09  1.0806 2.0172 151.1 21.1 .099 107
2023 09 28 07  00 03 17.977   -26 53 55.86  1.0808 2.0172 151.1 21.1 .099 107
2023 09 28 08  00 03 18.390   -26 55 04.57  1.0810 2.0172 151.1 21.1 .099 107
2023 09 28 09  00 03 18.803   -26 56 13.20  1.0813 2.0172 151.0 21.1 .099 107
2023 09 28 10  00 03 19.217   -26 57 21.77  1.0815 2.0172 151.0 21.1 .100 107
2023 09 28 11  00 03 19.632   -26 58 30.27  1.0817 2.0172 150.9 21.1 .100 107
2023 09 28 12  00 03 20.046   -26 59 38.71  1.0819 2.0173 150.9 21.1 .100 107
2023 09 28 13  00 03 20.461   -27 00 47.07  1.0821 2.0173 150.9 21.1 .100 107
2023 09 28 14  00 03 20.877   -27 01 55.37  1.0823 2.0173 150.8 21.1 .100 107
2023 09 28 15  00 03 21.292   -27 03 03.60  1.0825 2.0173 150.8 21.1 .101 107
2023 09 28 16  00 03 21.709   -27 04 11.77  1.0827 2.0173 150.7 21.1 .101 107
2023 09 28 17  00 03 22.125   -27 05 19.86  1.0829 2.0173 150.7 21.1 .101 107
2023 09 28 18  00 03 22.542   -27 06 27.89  1.0831 2.0173 150.7 21.1 .101 107
2023 09 28 19  00 03 22.960   -27 07 35.85  1.0833 2.0173 150.6 21.1 .102 108
2023 09 28 20  00 03 23.377   -27 08 43.75  1.0835 2.0174 150.6 21.1 .102 108
2023 09 28 21  00 03 23.796   -27 09 51.57  1.0838 2.0174 150.6 21.1 .102 108
2023 09 28 22  00 03 24.214   -27 10 59.33  1.0840 2.0174 150.5 21.1 .102 108
2023 09 28 23  00 03 24.633   -27 12 07.02  1.0842 2.0174 150.5 21.1 .102 108
2023 09 29 00  00 03 25.053   -27 13 14.64  1.0844 2.0174 150.4 21.1 .103 108